Satellite-Ground Cal/Val Site Overpasses Predictions

Prediction of Satellite NPP Overpassing Cal/Val Site: Antarctic Dome C

Ground Cal/Val Site Location: Latitude: -75.10, Longitude: 123.35; Satellite-Ground Site NADIR distance within 100 km.

Table of predicted overpasses for the next 14.0 days since TLE Epoch: 1/16/2021
Interval Starting Time Ending Time Minimum Distance Time Minimum Distance (km)
1 01/16/2021 07:24:47 01/16/2021 07:25:15 01/16/2021 07:25:01 36.67
2 01/18/2021 15:07:14 01/18/2021 15:07:22 01/18/2021 15:07:18 95.27
3 01/19/2021 14:48:14 01/19/2021 14:48:43 01/19/2021 14:48:29 15.98
4 01/21/2021 07:31:04 01/21/2021 07:31:33 01/21/2021 07:31:18 2.11
5 01/24/2021 14:54:31 01/24/2021 14:54:59 01/24/2021 14:54:45 20.60
6 01/25/2021 14:35:49 01/25/2021 14:36:03 01/25/2021 14:35:56 86.36
7 01/26/2021 07:37:21 01/26/2021 07:37:48 01/26/2021 07:37:34 36.23
8 01/27/2021 07:18:35 01/27/2021 07:18:55 01/27/2021 07:18:45 73.81
